Regional Weather Roundup
Issued by NWS Wakefield, VA

Home | Current Version | Previous Version | Text Only | Print | Product List | Glossary Off
Versions: 1 2 3 4 5 6 7 8 9 10 11 12 13 14 15 16 17 18 19 20 21 22 23 24 25 26 27 28 29 30 31 32 33 34 35 36 37 38 39 40 41 42 43 44 45 46 47 48 49 50

865
ASUS41 KAKQ 271015
RWRAKQ

REGIONAL WEATHER ROUNDUP
NATIONAL WEATHER SERVICE WAKEFIELD VA
600 AM EDT WED JUL 27 2016

Note: "fair" indicates few or no clouds below 12,000 feet with no
significant weather and/or obstructions to visibility. * = Denotes
station may not report precipitation (e.g., rain,snow,etc.),
thunder or fog.

VAZ042-051-052>054-056-271100-
NORTHERN VIRGINIA

CITY           SKY/WX    TMP DP  RH WIND       PRES   REMARKS
WASH NATIONAL  MOCLDY    81  73  76 N6        29.94R
DULLES         MOCLDY    77  72  84 N3        29.95R
FORT BELVOIR   FAIR      74  72  92 CALM      29.94R
QUANTICO       FAIR      77  72  84 NW5       29.94R
FREDERICKSBRG* FAIR      74  74 100 CALM      29.93S
STAFFORD*      FAIR      72  71  94 CALM      29.98S
WARRENTON      FAIR      73  68  86 CALM      29.95R HAZE
CULPEPER*        N/A     73  73 100 CALM      29.96S FOG
MANASSAS*      FAIR      73  72  94 CALM      29.94S
LEESBURG*      FAIR      79  73  83 CALM      29.97R
WINCHESTER     FAIR      75  72  88 W3        29.98S
FRONT ROYAL*   FAIR      72  72 100 CALM      29.98R
LURAY*         PTSUNNY  N/A N/A N/A CALM      29.99S HAZE
$$

VAZ048-049-060>072-079>083-271100-
CENTRAL AND SOUTH CENTRAL VIRGINIA

CITY           SKY/WX    TMP DP  RH WIND       PRES   REMARKS
RICHMOND       FAIR      73  71  93 CALM      29.95R
CHESTERFIELD*  FAIR      72  59  64 CALM      29.97R
PETERSBURG*    FAIR     N/A N/A N/A W3        29.96S
HANOVER        FAIR      73  70  90 CALM      29.96S
TAPPAHANNOCK*  FAIR      74  74 100 CALM      29.95R FOG
QUINTON*       FAIR      73  73 100 CALM      29.94S
CHARLOTTSVILLE FAIR      75  72  90 CALM      29.96R
GORDONSVILLE*  FAIR      72  72  99 CALM      29.95R
ORANGE*          N/A     73  73 100 CALM      29.97R
LOUISA*        FAIR      75  75 100 CALM      29.95S FOG
BUMPASS*       PTSUNNY   71  71 100 CALM      29.95S
FARMVILLE*     FAIR     N/A N/A N/A SW3       29.95F HAZE
CREWE*         CLOUDY    71  71 100 CALM      29.96S
FORT PICKETT*  FAIR      71  70  98 S7        29.97S
CHASE CITY*    CLOUDY    73  71  95 CALM      29.98S
CLARKSVILLE*   FAIR      72  72 100 CALM      29.97S
SOUTH HILL*    CLOUDY    73  73 100 CALM      30.03R VSB 1/4
LAWRENCEVILLE* FAIR      73  73 100 CALM      29.97R
EMPORIA*       FAIR      72  72 100 CALM      29.97R FOG
$$

VAZ088>098-271100-
SOUTHEAST VIRGINIA

CITY           SKY/WX    TMP DP  RH WIND       PRES   REMARKS
NORFOLK        FAIR      79  75  87 VRB3      29.93R
VIRGINIA BEACH MOCLDY    82  74  76 W6        29.92S
NORFOLK NAVAL  FAIR      79  75  87 W5        29.94R
WEST POINT*    MOCLDY    75  74  96 CALM      29.95R
SALUDA*        FAIR      77  76  98 NW7       29.93S
NEWPORT NEWS   FAIR      76  75  97 CALM      29.94R
LANGLEY AFB    FAIR      77  76  95 NW1       29.93R
FORT EUSTIS    FAIR      78  77  98 NW6       29.92R
WILLIAMSBURG*  FAIR      79  77  94 CALM      29.95R
HR EXEC AP*    FAIR      73  70  88 W5        29.96R
FRANKLIN*      MOCLDY    73  73  98 CALM      29.95S FOG
US460-WAKEFLD  MOCLDY    75  73  93 CALM      29.95R FOG
$$

VAZ020-022-025-037-045-271100-
WEST CENTRAL AND SOUTHWEST VIRGINIA

CITY           SKY/WX    TMP DP  RH WIND       PRES   REMARKS
STAUNTON*      FOG       69  69 100 CALM      30.03R VSB 1/2
WAYNESBORO*    FAIR      70  69  96 NW3       30.02R
HOT SPRINGS VA FAIR      68  68 100 NW8       30.14S
LYNCHBURG      MOCLDY    70  70 100 SW3       30.01R FOG
DANVILLE       FAIR      73  72  96 CALM      29.99R
SOUTH BOSTON*  FAIR      73  71  95 CALM      29.98S
MARTINSVILLE   FAIR      71  70  96 CALM      30.03S
ROANOKE        FAIR      73  71  93 NW3       30.03S
BLACKSBURG     FAIR      69  69  98 CALM      30.11R
DUBLIN*        FAIR      71  71  99 CALM      30.10R
MARION*        CLOUDY    71  69  95 W6        30.14R
HILLSVILLE*    FAIR      71  71  99 CALM      30.11R
RICHLANDS*     FAIR      71  71  98 CALM      30.12R
WISE*          MOCLDY    70  68  94 S5        30.14R
ABINGDON*      FAIR      71  70  98 CALM      30.10R
$$

MDZ021>025-VAZ099-100-271100-
SOUTHERN MARYLAND AND THE DELMARVA PENINSULA

CITY           SKY/WX    TMP DP  RH WIND       PRES   REMARKS
PATUXENT RIVER CLOUDY    79  74  84 W6        29.92R
BAY BRIDGE APT PTCLDY    81  73  78 NW3       29.93R
LEONARDTOWN      N/A     77  73  88 MISG        N/A
DOVER          CLOUDY    80  80 100 N8        29.91R
GEORGETOWN     CLOUDY    77  75  93 S3        29.93R
EASTON         CLOUDY    81  80  97 CALM      29.96R
CAMBRIDGE      CLOUDY    79  77  94 CALM      29.93R
SALISBURY      CLOUDY    77  76  96 CALM      29.93R
OCEAN CITY     CLOUDY    77  75  93 CALM      29.92S
WALLOPS ISLAND CLOUDY    79  77  94 CALM      29.93R FOG
ACCOMACK*      TSTM      77  73  88 W14G20    29.93R
$$

NCZ012>017-030>032-271100-
NORTH CENTRAL AND EASTERN NORTH CAROLINA

CITY           SKY/WX    TMP DP  RH WIND       PRES   REMARKS
ROANOKE RAPIDS FAIR      72  72 100 CALM      29.96R
RALEIGH        CLOUDY    76  74  93 CALM      29.97R
ELIZABETH CITY CLOUDY    76  74  93 CALM      29.94S
AHOSKIE*       PTCLDY    73  72  98 CALM      29.97R FOG
EDENTON*       CLOUDY   N/A N/A N/A CALM      29.96S
CURRITUCK*     CLOUDY    77  76  96 S3        29.94F
KILL DEVIL HLS CLOUDY    82  78  87 NW7       29.93R
MANTEO           N/A     80  79  96 NW6       29.95R
CAPE HATTERAS  CLOUDY    81  77  88 W9        29.94F
TARBORO*       FAIR      76  74  93 CALM      29.96R
GOLDSBORO      MOCLDY    79  79 100 SW5       29.95S
WASHINGTON     PTCLDY    78  75  89 SW7       29.95R
GREENVILLE     MOCLDY    81  77  89 SW5       29.97R
NEW BERN       PTCLDY    77  74  90 SW5       29.98R
WILMINGTON     PTCLDY    79  74  84 SW9       29.99R
$$

VAZ048-271100-
ELSEWHERE

CITY           SKY/WX    TMP DP  RH WIND       PRES   REMARKS
HARRISBURG PA  CLOUDY    74  64  71 NW3       29.96R
BALTIMORE      CLOUDY    79  68  69 NW3       29.93R
ANNAPOLIS      CLOUDY    80  73  79 W5        29.92R
ANDREWS AFB    FAIR      78  72  83 CALM      29.94R
PHILADELPHIA   CLOUDY    77  65  66 NE5       29.95R
GREENSBORO     MOCLDY    78  75  90 CALM      29.99S
ROCKY MOUNT    MOCLDY    77  77 100 CALM      29.95S
$$

VAZ100-271100-
MARINE

STATION/POSITION TIME  TEMP    WIND        PRES    WAVE   SWELL
                       AIR SEA DIR/SP/G            HT/PER HT/PER
                 (UTC) (F)     (DEG/KT/KT) (MB)    (FT/S) (FT/S)
BRANDYWINE LGT   0900   78     210/  5/  5   N/A
CAPE MAY NJ      0900   75 73  120/  2/  2 1012.7R
LEWES DE         0900   80 75  200/  3/  4 1012.9F
OCEAN-CITY-INLET 0900   75 72  210/  3/  3 1013.4F
WACHAPREAGUE VA  0900   80 86   CALM  /  1 1013.1S
THOMAS POINT MD  1000   81 84  290/  7/  8 1014.9R
GOOSES REEF MD   1000   82 85  270/  4/  6 1014.6R   1
COVE POINT MD    0900   80     320/  3/  5 1013.8R
SOLOMONS ISLAND  0900   80 85  310/  5/  7   N/A
BISHOPS HEAD MD  0900   82 86  340/  6/  7 1013.3F
PINEY POINT MD   0900          290/  8/  9   N/A
POTOMAC MD       1000   80 86  280/  8/ 10 1012.5R   1/ 2
CAMBRIDGE MD     0900   83 87  240/  3/  5 1012.1F
LEWISETTA VA     0900   78 87  280/  8/  9 1012.9F
RAPPAHANNOCK LGT 0900          310/ 10/ 11 1013.8F
STINGRAY PT      1000   80 84  280/  8/ 12 1013.9R   1
YORK RVR RNG VA  0900   80     330/  7/  8 1012.8R
YORKTOWN VA      0900   79 84  290/  5/  7 1012.8S
JAMESTOWN VA     1000   78 89  350/  4/  8   N/A     0
DOMINION TERM VA 0900   79     260/  5/  6 1013.3F
KIPTOPEKE VA     0900      81  320/  8/  9   N/A
CHES BAY BRIDGE  0900   80 71  230/  8/  9 1012.9F
CAPE HENRY VA    0900   79     200/  5/  6   N/A
WILLOUBY STN VA  0900   79     350/  1/  1   N/A
CAPE HENRY BUOY  0912      71                N/A     2/ 6
1ST LANDING BUOY 1000   80 79  320/  8/  8 1013.3R
CAPE CHARLES BUO 0926      74                N/A     1/ 6
OFFSHORE WE BUOY 0921      81                N/A     2/ 6
64NM E OF VA BCH 0950   81 79  270/  6/  8 1013.2R   3/ 6   3/ 6
DUCK PIER NC     0900   82 63  270/ 10/ 12 1012.9R
44100 DUCK FRF   0905      77                N/A     2/ 6
44056 DUCK FRF   0911      66                N/A     1/ 5
OREGON INLET NC  0900   82 85  240/ 13/ 16 1013.0F
HATTERAS NC      0900   81 83  230/  6/  9 1013.9F
DIAMOND SHLS NC  0950   84 84  240/ 17/ 19 1013.8F   4/ 6
CAPE LOOKOUT NC  1000   83     250/ 11/ 14 1014.7R
$$




USA.gov is the U.S. government's official web portal to all federal, state and local government web resources and services.